FW8269 Weather Reports


time (UTC)temp
C
wind
direction
speed
KPH
gust
KPH
rain 1hr
cm
rain 24hr
cm
rain mn
cm
humidity
%
barometer
mb
20260507181554 28 120 12.9 24.1 0.00 0.00 0.00 81 1015.2
20260507180046 28 138 16.1 24.1 0.00 0.00 0.00 80 1015.3
20260507174553 28 98 19.3 25.7 0.00 0.00 0.00 78 1015.5
20260507173113 28 111 17.7 25.7 0.00 0.00 0.00 81 1015.6
20260507171547 28 139 19.3 27.4 0.00 0.00 0.00 79 1015.8
20260507170041 28 115 16.1 24.1 0.00 0.00 0.00 79 1015.9
20260507164553 29 127 16.1 25.7 0.00 0.00 0.00 80 1016.2
20260507163048 29 110 17.7 27.4 0.00 0.00 0.00 79 1016.3
20260507161600 29 111 19.3 29.0 0.00 0.00 0.00 78 1016.4
20260507160041 29 103 17.7 25.7 0.00 0.00 0.00 79 1016.6
20260507154542 28 108 20.9 27.4 0.00 0.00 0.00 80 1016.6
20260507153041 28 120 22.5 29.0 0.00 0.00 0.00 80 1016.9
20260507151547 28 114 19.3 27.4 0.00 0.00 0.00 80 1016.8
20260507150047 29 115 17.7 27.4 0.00 0.00 0.00 79 1016.9
20260507144546 29 105 16.1 24.1 0.00 0.00 0.00 79 1017.2
20260507143048 28 108 20.9 27.4 0.00 0.00 0.00 81 1017.1
20260507141602 28 115 16.1 27.4 0.00 0.00 0.00 79 1017.2
20260507140054 28 95 17.7 27.4 0.00 0.00 0.00 80 1017.0
20260507134540 28 111 16.1 27.4 0.00 0.00 0.00 79 1017.0
20260507133037 28 95 16.1 25.7 0.00 0.00 0.00 81 1016.9
20260507131540 28 110 16.1 27.4 0.00 0.00 0.00 82 1016.8
20260507130046 27 92 20.9 27.4 0.00 0.00 0.00 81 1016.8
20260507124557 27 63 12.9 19.3 0.00 0.00 0.00 82 1016.7
20260507123042 27 74 14.5 27.4 0.00 0.00 0.00 81 1016.5
20260507121542 27 63 9.7 20.9 0.00 0.00 0.00 81 1016.3
20260507120043 26 61 12.9 17.7 0.00 0.00 0.00 82 1016.0
20260507114544 26 68 8.0 12.9 0.00 0.00 0.00 83 1016.1
20260507113047 25 0 0.0 0.0 0.00 0.00 0.00 83 1016.0
20260507111539 25 0 0.0 0.0 0.00 0.00 0.00 83 1015.9
20260507110039 25 0 0.0 0.0 0.00 0.00 0.00 85 1015.8
20260507104540 25 0 0.0 0.0 0.00 0.00 0.00 85 1015.5
20260507103044 24 0 0.0 0.0 0.00 0.00 0.00 85 1015.5
20260507101542 23 0 0.0 0.0 0.00 0.00 0.00 86 1015.3
20260507100042 23 0 0.0 0.0 0.00 0.00 0.00 86 1015.1
20260507094539 24 0 0.0 0.0 0.00 0.00 0.00 85 1015.3
20260507093047 24 0 0.0 0.0 0.00 0.00 0.00 85 1015.3
20260507091546 24 0 0.0 0.0 0.00 0.00 0.00 84 1015.2
20260507090045 24 0 0.0 0.0 0.00 0.00 0.00 85 1015.3
20260507084539 24 0 0.0 0.0 0.00 0.00 0.00 85 1015.3
20260507083039 24 0 0.0 0.0 0.00 0.00 0.00 84 1015.4
20260507081544 24 0 0.0 0.0 0.00 0.00 0.00 84 1015.1
20260507080043 24 0 0.0 0.0 0.00 0.00 0.00 84 1015.1
20260507074541 24 0 0.0 0.0 0.00 0.00 0.00 84 1015.3
20260507073046 24 0 0.0 0.0 0.00 0.00 0.00 84 1015.2
20260507071539 24 0 0.0 0.0 0.00 0.00 0.00 85 1015.5
20260507070042 24 0 0.0 0.0 0.00 0.00 0.00 85 1015.5
20260507064554 24 0 0.0 0.0 0.00 0.00 0.00 85 1015.7
20260507063047 25 0 0.0 0.0 0.00 0.00 0.00 85 1015.9
20260507061541 25 0 0.0 0.0 0.00 0.00 0.00 84 1016.1
20260507060039 25 0 0.0 0.0 0.00 0.00 0.00 84 1016.2
20260507054539 25 0 0.0 0.0 0.00 0.00 0.00 84 1016.3
20260507053045 25 0 0.0 0.0 0.00 0.00 0.00 84 1016.5
20260507051540 25 0 0.0 0.0 0.00 0.00 0.00 85 1016.7
20260507050041 25 0 0.0 0.0 0.00 0.00 0.00 85 1017.1
20260507044540 25 0 0.0 0.0 0.00 0.00 0.00 85 1017.2
20260507043041 25 0 0.0 0.0 0.00 0.00 0.00 84 1017.4
20260507041545 25 0 0.0 0.0 0.00 0.00 0.00 84 1017.4
20260507040043 25 6 0.0 4.8 0.00 0.00 0.00 84 1017.4
20260507034544 26 0 0.0 6.4 0.00 0.00 0.00 85 1017.6
20260507033057 26 27 4.8 8.0 0.00 0.00 0.00 85 1017.6
20260507031539 26 42 6.4 8.0 0.00 0.00 0.00 85 1017.8
20260507030040 26 358 6.4 9.7 0.00 0.00 0.00 84 1017.9
20260507024553 26 26 3.2 9.7 0.00 0.00 0.00 85 1017.7
20260507023040 26 44 6.4 9.7 0.00 0.00 0.00 86 1017.6
20260507021540 26 44 6.4 9.7 0.00 0.00 0.00 85 1017.5
20260507020039 26 88 6.4 11.3 0.00 0.00 0.00 84 1017.5
20260507014543 26 30 6.4 9.7 0.00 0.00 0.00 84 1017.5
20260507013041 27 55 6.4 12.9 0.00 0.00 0.00 83 1017.4
20260507011540 27 37 8.0 11.3 0.00 0.00 0.00 84 1017.3
20260507010043 27 65 4.8 9.7 0.00 0.00 0.00 84 1017.3
20260507004542 27 60 4.8 9.7 0.00 0.00 0.00 84 1017.2
20260507003038 27 37 4.8 11.3 0.00 0.00 0.00 85 1017.0
20260507001603 27 69 3.2 8.0 0.00 0.00 0.00 84 1016.9
20260507000043 27 63 4.8 12.9 0.00 0.00 0.00 84 1016.7
20260506234552 27 79 8.0 12.9 0.00 0.00 0.00 83 1016.4
20260506233039 27 79 6.4 14.5 0.00 0.00 0.00 83 1016.4
20260506231545 27 91 8.0 16.1 0.00 0.00 0.00 83 1016.2
20260506230048 27 99 12.9 19.3 0.00 0.00 0.00 83 1016.1
20260506224557 27 106 11.3 17.7 0.00 0.00 0.00 82 1016.0
20260506223048 27 82 11.3 17.7 0.00 0.00 0.00 83 1016.1
20260506221542 27 106 12.9 20.9 0.00 0.00 0.00 81 1015.7
20260506220048 28 101 11.3 22.5 0.00 0.00 0.00 81 1015.7
20260506214539 28 94 11.3 19.3 0.00 0.00 0.00 81 1015.7
20260506213038 28 108 12.9 20.9 0.00 0.00 0.00 82 1015.7
20260506211552 28 110 14.5 22.5 0.00 0.00 0.00 81 1015.7
20260506210043 28 105 16.1 24.1 0.00 0.00 0.00 80 1015.6
20260506204542 28 118 14.5 24.1 0.00 0.00 0.00 80 1015.6
20260506203041 28 111 16.1 25.7 0.00 0.00 0.00 81 1015.4
20260506201548 28 103 16.1 25.7 0.00 0.00 0.00 79 1015.5
20260506200039 28 102 16.1 24.1 0.00 0.00 0.00 80 1015.6
20260506194544 28 122 17.7 24.1 0.00 0.00 0.00 78 1015.7
20260506193045 29 117 17.7 25.7 0.00 0.00 0.00 77 1015.8
20260506191539 29 129 16.1 24.1 0.00 0.00 0.00 78 1015.8
20260506190039 29 106 17.7 25.7 0.00 0.00 0.00 78 1015.8
20260506184543 29 120 17.7 27.4 0.00 0.00 0.00 78 1016.0
20260506183042 29 115 16.1 24.1 0.00 0.00 0.00 77 1016.2